Total_Precipitation_Accumulation
2.19 2.18 2.16 2.19 2.09 2.18 2.21 2.15 1.90 1.70 1.58 1.42 1.25 1.29 1.40 1.38 1.47 1.56 1.82 1.90 1.76 1.93 2.32 2.65 2.68 2.70 2.68 2.59 2.49 2.43 2.33 2.28 2.14 1.93 1.65 1.47 1.41 1.29 1.25 1.24 1.27 1.25 1.21
2.55 2.55 2.65 2.64 2.39 2.37 2.45 2.51 2.37 2.15 1.88 1.68 1.49 1.46 1.47 1.45 1.54 1.69 1.88 2.02 1.94 1.86 2.21 2.65 2.86 2.99 3.00 3.00 2.86 2.62 2.42 2.33 2.28 2.13 1.96 1.72 1.56 1.44 1.37 1.31 1.28 1.24 1.21
2.85 2.84 3.00 2.99 2.66 2.58 2.70 2.80 2.76 2.63 2.24 1.96 1.84 1.80 1.75 1.76 1.72 1.78 1.96 2.08 2.04 1.99 2.13 2.27 2.45 2.66 2.81 2.95 3.01 2.87 2.67 2.45 2.30 2.22 2.19 2.09 1.88 1.65 1.50 1.44 1.41 1.34 1.25
2.90 3.00 2.94 2.80 2.73 2.78 3.01 3.21 3.15 3.07 2.82 2.54 2.33 2.06 1.88 1.87 1.81 1.95 2.02 2.07 2.30 2.22 2.15 1.96 2.03 2.24 2.50 2.83 3.10 3.14 3.04 2.84 2.55 2.35 2.29 2.20 2.03 1.79 1.59 1.50 1.48 1.42 1.35
3.04 3.19 3.21 3.17 3.10 3.13 3.19 3.10 3.26 3.12 3.16 2.97 2.52 2.27 2.06 1.97 2.02 2.06 2.10 2.08 2.19 2.30 2.27 2.05 1.96 2.05 2.19 2.52 2.79 3.08 3.19 3.12 2.88 2.62 2.46 2.34 2.19 2.01 1.82 1.69 1.59 1.51 1.43
3.34 3.46 3.43 3.49 3.55 3.61 3.44 3.34 3.36 3.16 3.01 2.93 2.56 2.36 2.21 2.07 2.03 1.99 1.92 1.94 2.03 1.99 2.06 2.06 2.09 1.96 2.02 2.16 2.39 2.78 3.18 3.30 3.25 3.03 2.83 2.69 2.44 2.18 1.97 1.86 1.76 1.68 1.60
3.94 3.96 3.99 3.98 3.85 3.76 3.60 3.42 3.32 3.20 2.97 2.76 2.68 2.37 2.02 1.77 1.69 1.65 1.69 1.76 1.75 1.75 1.84 2.00 2.10 2.07 1.93 1.87 2.02 2.47 3.04 3.34 3.36 3.24 3.10 3.00 2.70 2.35 2.11 1.96 1.86 1.76 1.70
4.64 4.43 4.39 4.19 3.90 3.72 3.58 3.39 3.25 3.09 2.82 2.67 2.61 2.59 2.19 1.86 1.56 1.37 1.46 1.46 1.51 1.66 1.75 1.72 1.77 1.79 1.74 1.75 1.68 1.93 2.21 2.49 2.78 3.01 3.12 3.04 2.85 2.58 2.33 2.20 2.13 2.05 1.96
4.70 4.42 4.14 4.00 3.84 3.67 3.50 3.40 3.26 3.14 2.89 2.71 2.59 2.71 2.56 2.23 1.82 1.61 1.46 1.46 1.53 1.59 1.59 1.56 1.53 1.53 1.57 1.66 1.68 1.73 1.87 2.02 2.26 2.54 2.77 2.82 2.76 2.61 2.47 2.40 2.38 2.39 2.38
4.35 3.93 3.70 3.71 3.57 3.36 3.16 2.94 2.81 2.77 2.70 2.58 2.52 2.42 2.39 2.32 2.14 1.91 1.71 1.70 1.71 1.67 1.61 1.57 1.62 1.67 1.68 1.76 1.76 1.62 1.58 1.61 1.83 2.03 2.29 2.42 2.40 2.40 2.42 2.51 2.63 2.74 2.75
3.80 3.51 3.30 3.32 3.22 2.97 2.74 2.48 2.29 2.20 2.20 2.27 2.29 2.27 2.22 2.17 2.00 1.88 1.78 1.71 1.68 1.66 1.59 1.55 1.60 1.67 1.68 1.63 1.59 1.56 1.56 1.52 1.62 1.76 1.91 2.12 2.26 2.31 2.39 2.51 2.62 2.71 2.78
3.20 2.87 2.59 2.49 2.38 2.23 2.11 2.01 1.90 1.85 1.85 1.95 2.01 1.96 1.96 1.98 1.95 1.93 1.86 1.71 1.69 1.76 1.64 1.51 1.44 1.41 1.42 1.47 1.49 1.63 1.55 1.53 1.57 1.63 1.59 1.61 1.77 1.97 2.16 2.30 2.36 2.50 2.67
2.54 2.25 2.04 1.92 1.86 1.81 1.76 1.75 1.72 1.65 1.56 1.60 1.63 1.66 1.67 1.65 1.69 1.83 1.96 1.93 1.83 1.70 1.62 1.54 1.39 1.35 1.33 1.35 1.50 1.62 1.48 1.43 1.49 1.49 1.39 1.34 1.39 1.52 1.62 1.77 1.95 2.10 2.28
1.99 1.88 1.74 1.62 1.58 1.61 1.60 1.63 1.57 1.45 1.36 1.34 1.29 1.33 1.39 1.38 1.51 1.70 1.84 2.00 2.02 1.80 1.56 1.48 1.39 1.30 1.31 1.34 1.51 1.53 1.35 1.29 1.28 1.33 1.32 1.27 1.23 1.24 1.27 1.34 1.44 1.52 1.67
1.55 1.52 1.49 1.45 1.37 1.33 1.28 1.25 1.22 1.21 1.23 1.22 1.17 1.15 1.18 1.20 1.31 1.45 1.60 1.81 2.00 1.91 1.64 1.42 1.40 1.36 1.29 1.37 1.58 1.34 1.24 1.26 1.14 1.07 1.07 1.07 1.09 1.11 1.10 1.06 1.08 1.13 1.21
1.19 1.21 1.17 1.14 1.17 1.18 1.10 1.03 1.01 1.02 1.04 1.09 1.12 1.06 1.05 1.06 1.10 1.16 1.28 1.44 1.66 1.81 1.70 1.39 1.30 1.22 1.18 1.15 1.39 1.22 1.24 1.24 1.04 0.91 0.86 0.87 0.90 0.95 0.95 0.91 0.92 0.96 1.01
1.02 0.99 0.98 0.97 0.95 0.95 0.94 0.96 0.94 0.95 1.01 1.03 1.02 1.01 0.99 1.00 1.03 1.02 1.09 1.21 1.36 1.53 1.67 1.52 1.32 1.20 1.15 1.17 1.22 1.13 1.09 1.02 0.95 0.93 0.81 0.75 0.77 0.83 0.83 0.81 0.84 0.87 0.90
0.91 0.90 0.91 0.88 0.79 0.77 0.83 0.90 0.92 0.90 0.98 0.99 0.97 1.00 0.98 0.97 1.00 1.00 1.04 1.10 1.23 1.41 1.56 1.62 1.44 1.29 1.19 1.13 1.13 1.09 0.92 0.85 0.88 0.99 0.85 0.75 0.70 0.70 0.78 0.74 0.73 0.77 0.84
0.88 0.86 0.81 0.79 0.77 0.73 0.75 0.75 0.77 0.78 0.86 0.93 0.95 1.00 1.00 1.02 1.00 0.98 1.02 1.07 1.19 1.32 1.50 1.56 1.49 1.38 1.29 1.20 1.23 1.14 1.02 1.08 0.93 0.94 0.87 0.80 0.73 0.72 0.93 0.95 0.72 0.69 0.74
0.80 0.78 0.72 0.71 0.77 0.76 0.68 0.63 0.65 0.70 0.77 0.80 0.81 0.92 0.98 1.00 0.99 1.04 1.06 1.10 1.18 1.36 1.48 1.52 1.45 1.35 1.31 1.29 1.33 1.33 1.27 1.23 1.11 0.89 0.90 0.84 0.81 0.83 1.15 1.64 1.12 0.80 0.75
0.76 0.76 0.70 0.66 0.71 0.69 0.62 0.62 0.63 0.63 0.68 0.68 0.70 0.77 0.83 0.84 0.84 0.90 0.93 1.03 1.16 1.32 1.40 1.46 1.42 1.37 1.30 1.37 1.39 1.32 1.28 1.30 1.18 1.05 1.03 0.94 1.07 1.35 1.86 2.47 1.97 1.32 1.07
0.85 0.80 0.74 0.70 0.69 0.64 0.63 0.57 0.56 0.58 0.64 0.70 0.76 0.76 0.71 0.71 0.69 0.66 0.73 0.83 1.00 1.20 1.37 1.44 1.41 1.39 1.33 1.36 1.44 1.42 1.39 1.42 1.40 1.15 1.09 1.08 1.30 2.02 2.67 2.98 2.51 1.68 1.34
0.95 0.85 0.75 0.73 0.70 0.62 0.54 0.45 0.44 0.50 0.64 0.74 0.81 0.79 0.67 0.64 0.73 0.73 0.73 0.76 0.88 1.02 1.23 1.45 1.50 1.40 1.36 1.39 1.51 1.56 1.49 1.48 1.46 1.26 1.27 1.32 1.54 2.34 2.59 2.72 2.52 1.77 1.45
0.89 0.84 0.77 0.71 0.67 0.50 0.44 0.41 0.43 0.46 0.55 0.60 0.64 0.72 0.80 0.82 0.74 0.74 0.73 0.84 0.94 1.05 1.13 1.25 1.43 1.35 1.29 1.36 1.45 1.49 1.44 1.40 1.32 1.23 1.27 1.44 1.66 2.18 2.19 2.29 2.33 1.83 1.52
0.85 0.78 0.71 0.68 0.63 0.51 0.45 0.43 0.43 0.47 0.52 0.50 0.47 0.53 0.58 0.62 0.62 0.69 0.80 0.96 1.01 1.12 1.14 1.29 1.32 1.27 1.26 1.27 1.22 1.26 1.46 1.56 1.46 1.21 1.13 1.32 1.55 1.84 1.89 1.97 1.92 1.76 1.59
0.79 0.66 0.59 0.59 0.56 0.53 0.47 0.40 0.38 0.42 0.49 0.46 0.49 0.57 0.56 0.48 0.51 0.65 0.84 1.03 1.18 1.21 1.31 1.48 1.46 1.43 1.33 1.26 1.16 1.20 1.48 1.66 1.61 1.37 1.12 1.19 1.35 1.51 1.73 1.72 1.59 1.50 1.57